Location: Centerville
(32.8776°N, 96.6203°W)
Time: 05:43:40
(UTC+00:00)

IUS-18 SRM-1 - Pass Details

Date: 17 June 2021
Orbit: 294 x 20534 km, 27.9° (Epoch: 28 July)

Event Time Altitude Azimuth Distance (km) Brightness Sun altitude
Rises 03:38:06 0° 257° (WSW) 9,015 8.9 -20.8°
Reaches altitude 10° 03:47:27 10° 255° (WSW) 5,343 7.6 -22.0°
Enters shadow 03:57:39 48° 189° (S) 1,046 3.3 -23.4°
